RH
61 64 67 71 74 76 79 82 84 87 89 90 91 92 94 94 95 94 94 94 93 91 86 84 85 87 87 87 90 92 88 86 93 99 99 100 99 98 97 95 95 95 96 96 91 91 94 91 90 87 82 85 91 86 77 76 76 71 70 68 62 64 62 60 74 81 71 64 62 64 65 67 69 65 68 66 48 52 71 70 64 50 28 21 20
58 60 63 66 69 72 75 79 81 83 84 86 88 89 91 92 94 94 92 91 91 92 90 87 89 94 94 93 93 91 87 87 92 97 99 100 99 99 98 99 99 96 98 99 90 89 93 91 90 88 84 90 95 87 78 78 79 75 74 73 67 65 64 62 68 75 75 70 63 63 67 69 69 65 64 59 42 46 66 68 65 55 32 19 14
58 58 61 63 66 70 72 74 76 77 79 82 83 85 89 90 91 92 92 90 88 89 91 88 89 93 93 95 96 92 90 90 93 96 98 100 99 99 99 100 99 95 97 99 93 90 92 91 90 87 85 92 96 87 78 75 77 73 71 72 67 64 66 64 66 72 77 75 66 63 67 71 70 66 64 59 44 48 64 63 61 57 34 17 12
58 57 58 60 63 67 70 70 70 71 76 79 80 82 85 88 90 92 92 93 91 90 90 89 89 90 89 92 97 96 92 90 92 95 96 98 100 99 99 100 98 97 97 95 91 91 91 91 93 90 86 93 94 85 77 74 73 71 68 68 66 67 68 66 67 70 73 74 68 61 64 68 68 65 65 62 51 50 58 57 55 50 34 24 22
57 57 58 59 61 63 66 67 67 70 73 75 77 80 82 84 88 90 93 95 95 94 94 93 91 92 92 94 97 98 94 91 92 94 95 98 100 98 99 100 99 99 98 94 91 92 91 88 90 89 86 91 93 85 78 76 76 74 71 71 76 83 83 76 73 71 68 68 65 60 62 64 65 67 65 60 50 44 48 52 47 37 31 36 38
56 58 60 61 61 61 63 66 67 70 72 74 76 79 80 83 86 89 92 94 93 93 97 98 96 94 95 96 95 95 96 98 98 96 96 97 99 98 98 98 99 99 96 92 90 92 91 86 85 87 85 86 90 89 87 86 83 79 77 79 80 83 83 79 79 77 69 64 62 60 61 60 61 66 62 52 45 36 37 44 40 29 29 38 44
57 59 61 62 63 62 63 65 67 69 72 74 77 78 80 84 86 88 92 94 94 95 97 99 98 95 94 95 95 94 95 99 99 96 95 95 96 96 93 90 95 98 93 87 85 87 87 85 84 87 88 87 86 90 94 92 84 78 78 79 75 74 77 75 75 77 70 63 62 61 60 58 55 59 58 48 40 32 31 37 37 30 28 30 35
56 57 59 61 63 62 63 66 68 71 73 74 78 79 81 85 87 89 91 93 96 98 98 99 98 95 92 93 97 97 96 97 98 97 97 96 95 95 91 88 93 98 94 87 84 83 85 86 84 84 86 85 82 85 92 89 83 80 78 74 71 74 80 74 69 73 70 62 60 56 55 52 46 47 51 45 39 36 33 34 35 30 26 25 29
56 57 59 61 63 63 64 67 69 72 73 75 78 80 82 86 87 89 91 93 97 98 98 98 99 99 96 94 97 99 99 99 100 100 99 97 96 96 96 94 95 97 96 89 85 84 85 86 85 82 82 81 79 86 90 84 80 81 78 73 70 73 80 78 72 73 68 55 49 47 44 41 36 37 40 38 38 38 33 31 31 27 24 26 29
57 60 61 62 64 65 65 67 69 71 73 75 78 81 83 86 88 89 92 94 96 98 98 98 99 100 99 98 99 100 100 100 100 100 100 100 98 97 97 96 94 94 94 90 87 87 88 90 89 84 82 81 82 87 86 80 79 80 77 74 70 68 75 79 75 72 62 47 40 42 41 37 34 34 35 36 36 35 31 30 30 27 27 30 32
59 62 64 65 66 67 68 68 69 71 73 75 78 81 84 86 88 90 92 94 96 98 99 99 99 100 100 99 99 100 100 100 100 100 100 101 99 99 99 95 91 94 95 90 86 89 93 93 91 89 88 87 85 81 77 78 82 83 80 76 70 65 68 75 75 69 59 46 41 42 42 40 37 34 34 35 33 31 30 28 27 30 32 36 37
59 62 66 68 68 68 71 71 70 70 73 75 78 82 84 87 89 91 92 93 95 97 98 99 100 100 100 99 99 100 100 99 98 97 98 99 100 100 99 94 91 94 96 89 85 91 95 93 92 94 94 93 91 83 78 80 83 83 82 78 73 68 66 70 72 67 59 54 52 51 48 46 41 37 37 36 31 31 33 29 28 31 33 38 42
60 64 68 69 69 70 73 74 72 71 73 76 78 81 84 86 88 90 91 92 92 94 97 99 99 100 100 99 99 100 100 99 97 94 93 94 96 99 100 99 97 98 97 89 83 89 94 92 94 99 96 93 93 88 84 85 86 86 85 82 81 76 69 72 76 69 59 58 62 64 63 59 50 42 42 41 36 35 36 33 31 32 37 46 49
62 66 66 67 69 72 75 75 73 72 74 75 77 79 81 83 85 87 88 89 90 91 94 97 99 100 100 100 100 100 100 100 99 97 95 93 92 93 95 96 97 99 98 89 80 82 88 88 92 99 95 89 88 88 89 89 89 89 89 88 88 83 78 79 80 72 64 64 69 69 63 62 60 54 51 48 43 42 42 36 33 37 47 57 54
64 64 63 65 68 71 74 74 72 72 73 73 74 75 76 79 82 83 84 86 86 87 91 94 97 99 100 100 100 100 100 100 100 100 100 97 93 90 89 89 92 98 100 94 84 84 89 91 94 96 93 89 91 95 97 95 92 93 94 92 92 90 87 86 82 76 72 71 72 69 62 62 66 64 61 55 48 49 48 38 36 44 55 63 64
64 63 61 63 66 68 70 71 71 70 70 71 71 72 73 75 77 78 78 80 81 81 85 90 93 95 99 100 100 100 100 100 100 100 100 101 97 93 90 90 92 97 99 96 91 90 93 95 95 91 88 91 95 95 96 98 99 98 95 94 96 94 91 89 84 81 77 71 70 73 72 68 66 65 65 60 56 59 55 47 48 53 59 68 74
63 63 63 62 63 65 67 67 68 67 67 68 68 68 69 71 73 74 75 76 77 78 80 84 87 90 95 99 100 100 100 100 100 100 100 99 96 94 94 93 94 97 97 93 92 92 93 95 94 88 84 86 88 88 92 99 100 96 94 95 95 92 90 90 87 84 83 80 79 80 76 70 68 68 68 65 66 67 62 60 64 63 64 77 84
63 63 63 61 60 62 63 64 64 64 64 64 64 65 66 66 68 71 73 75 76 77 77 79 81 84 88 94 98 100 100 100 100 100 99 96 93 95 100 99 97 99 99 94 89 88 90 93 92 86 82 83 84 87 93 97 97 95 92 89 89 88 88 89 87 85 84 84 83 82 78 75 75 76 75 74 75 74 68 70 75 66 64 78 84
59 60 60 58 57 57 58 60 60 59 58 59 60 61 62 63 64 65 69 72 75 77 78 78 78 80 84 89 94 98 101 100 100 100 100 96 91 92 98 100 97 95 95 93 89 88 90 93 92 88 86 85 86 89 91 90 91 92 88 83 84 86 85 84 83 82 81 79 78 77 76 76 76 74 72 70 70 70 68 71 73 65 62 73 77
52 54 54 52 52 53 54 56 56 55 55 56 57 58 59 59 60 61 64 68 70 74 77 78 78 81 84 87 90 96 100 101 100 100 100 98 94 91 92 97 97 92 89 90 91 90 90 91 92 92 90 87 86 87 88 88 88 88 85 82 83 85 86 86 85 81 77 76 76 76 75 75 75 71 68 65 64 64 63 61 60 56 57 67 71
48 49 50 49 50 51 53 54 54 54 55 55 56 58 59 58 58 58 60 64 67 69 72 75 78 80 82 84 87 92 96 99 100 100 100 100 99 96 95 98 100 95 89 89 91 92 91 91 90 91 89 86 85 85 87 88 87 86 83 80 81 86 89 88 83 78 74 72 74 76 76 75 73 69 65 63 63 64 62 59 58 56 55 59 62
51 50 50 49 50 51 51 52 53 54 55 56 56 57 57 58 59 59 60 62 65 66 67 69 73 77 79 82 86 88 89 92 97 100 100 100 99 99 99 100 100 97 95 94 94 94 94 93 92 92 90 87 86 85 85 86 86 84 81 80 84 87 86 81 78 77 77 76 77 77 77 76 75 71 68 65 63 64 65 64 63 61 59 58 56
53 53 52 51 51 52 51 50 50 51 53 55 57 57 56 56 56 57 59 61 63 66 67 68 69 73 76 81 86 86 84 85 90 95 99 100 99 98 99 100 100 100 99 99 99 99 98 96 95 94 90 87 86 84 83 85 86 85 85 84 85 83 78 76 78 79 80 80 79 79 79 78 75 71 68 64 61 60 63 67 66 63 60 59 56
53 52 53 52 52 53 53 53 52 51 50 53 56 57 56 55 55 54 55 57 59 61 65 68 69 70 73 77 83 87 85 82 83 87 92 97 99 98 98 98 99 100 100 100 100 100 100 100 98 96 92 89 87 85 84 86 87 88 87 84 82 78 76 76 78 78 80 82 83 83 82 77 73 72 69 63 59 59 60 62 65 64 62 59 55
52 50 51 51 51 52 54 56 57 55 52 52 54 57 57 56 56 54 53 54 55 55 58 64 67 69 71 74 79 85 87 85 83 83 85 89 93 96 96 95 95 97 99 101 100 100 100 98 96 95 93 90 89 89 89 90 89 88 86 83 79 77 76 77 78 80 85 88 87 87 82 71 64 66 63 55 52 52 47 43 48 56 59 58 54
51 50 49 50 49 51 54 58 59 58 55 54 55 56 58 58 58 58 56 54 54 54 55 58 63 68 73 75 77 82 88 89 88 86 84 85 86 89 91 91 91 92 94 96 97 99 99 96 93 94 93 91 89 89 90 89 86 85 84 83 82 80 79 79 79 82 86 88 85 83 80 73 67 65 59 51 50 51 47 43 47 53 55 53 50
46 47 48 48 47 49 54 58 61 60 57 57 58 58 59 61 60 59 58 56 55 55 56 58 61 66 73 77 78 80 85 90 91 90 88 87 86 86 86 87 87 87 89 90 91 93 94 94 92 92 91 89 86 85 85 86 85 83 80 79 80 81 80 78 76 78 82 84 84 84 82 80 78 75 71 67 65 64 63 62 63 62 58 54 52
41 42 43 45 45 45 48 53 60 64 62 59 59 60 62 63 61 57 56 56 57 58 59 61 63 67 74 81 82 81 82 85 90 94 93 90 89 88 87 87 86 86 86 86 84 83 83 85 86 87 88 88 86 84 83 87 89 88 84 82 82 81 79 76 75 78 80 81 80 79 77 76 74 72 71 72 72 70 70 67 65 67 65 60 58
36 36 37 39 41 42 43 44 50 59 64 63 62 62 62 64 63 60 56 54 55 57 61 62 63 66 75 81 82 82 82 81 83 90 92 90 88 89 90 89 88 88 87 83 80 79 80 82 84 86 88 89 90 88 84 83 86 87 86 86 84 80 77 75 75 77 77 74 72 70 69 69 67 63 62 65 66 67 67 61 58 62 66 64 62
33 33 33 34 36 37 38 40 42 48 55 61 64 64 63 63 63 62 60 58 55 54 57 61 60 61 68 76 79 81 83 80 77 81 85 86 84 86 89 90 89 89 88 85 84 86 89 91 92 92 92 93 94 94 90 87 86 85 84 84 83 81 78 76 76 75 74 73 72 71 70 70 69 66 64 62 60 61 61 57 54 58 61 60 61
33 33 32 32 32 33 35 38 40 41 44 49 56 61 64 64 65 65 64 63 61 57 55 58 59 57 60 68 73 76 78 77 75 75 79 82 82 83 86 89 90 89 88 88 91 94 96 96 96 96 96 98 99 99 97 95 91 88 86 84 83 81 80 78 77 76 75 75 74 73 73 73 71 69 66 62 60 60 60 58 58 60 59 55 53
34 36 35 32 31 32 34 36 37 37 38 41 45 50 55 59 61 63 63 63 63 61 57 56 57 57 58 61 66 70 74 76 76 75 77 80 81 83 86 89 89 88 86 87 91 94 95 95 94 93 93 95 96 97 98 98 96 92 90 87 84 81 80 78 76 75 75 74 72 72 72 71 68 67 65 63 62 62 61 58 55 55 54 50 48
34 35 36 34 32 33 33 33 34 36 37 39 42 45 48 50 52 55 56 57 60 62 61 57 55 55 56 59 63 67 70 72 74 75 76 78 81 84 86 88 89 87 86 89 94 97 96 96 95 94 93 92 92 93 95 96 96 95 93 90 87 84 81 78 76 74 73 72 71 70 70 68 66 64 64 63 63 61 57 53 50 47 45 44 44
35 34 35 33 32 32 33 33 34 36 36 36 39 44 47 47 47 47 48 49 53 57 59 56 51 49 52 57 61 66 68 69 70 72 73 74 77 80 81 82 84 84 86 91 95 97 97 97 96 96 95 94 93 92 93 93 93 93 91 90 88 85 81 78 75 72 71 69 68 67 66 63 62 61 61 60 60 57 53 51 48 45 43 42 43
35 35 36 34 32 32 33 33 33 34 34 36 38 42 44 45 45 44 44 45 47 49 52 52 48 45 48 53 59 64 67 67 69 71 72 72 74 77 79 81 82 83 86 88 89 91 93 94 94 93 92 92 91 92 92 91 91 89 88 87 85 83 80 77 74 72 69 66 64 63 62 60 59 58 58 57 55 53 51 49 47 45 44 43 42
32 33 36 38 37 35 32 31 32 32 33 36 39 41 42 42 42 42 43 44 45 46 49 50 47 45 46 49 54 60 63 65 68 72 73 72 71 73 76 80 83 85 86 86 87 88 89 90 90 89 89 88 88 87 87 87 87 85 84 83 82 80 78 75 73 70 67 64 62 60 59 57 55 54 54 53 52 51 50 48 47 46 44 42 41
33 33 35 37 38 35 31 31 32 32 32 34 37 39 40 41 41 41 42 43 43 44 48 51 49 47 46 46 50 57 60 61 66 70 72 73 73 73 74 77 79 82 84 85 86 87 87 87 87 86 86 85 84 83 82 82 81 80 79 78 76 74 71 69 68 66 63 60 58 56 54 52 50 50 51 51 49 48 46 44 44 45 42 39 39
31 31 33 34 34 32 30 31 33 33 32 33 35 38 40 40 41 41 41 42 42 42 46 51 50 47 46 45 48 54 56 57 62 68 69 71 74 75 75 76 78 79 82 84 85 85 86 86 86 85 83 82 81 80 79 77 76 75 75 74 70 67 64 62 60 59 57 55 52 50 47 46 45 46 46 45 44 42 40 38 38 40 40 38 38
32 30 30 30 31 31 30 31 32 32 32 33 34 37 39 40 40 40 40 41 42 41 43 48 49 48 48 46 46 51 53 53 58 66 69 70 73 75 75 76 76 77 80 83 84 84 84 83 83 82 81 80 78 76 72 69 68 67 67 66 63 60 57 55 54 53 52 50 48 46 44 44 43 43 42 42 42 41 40 39 38 38 38 38 38
33 32 30 29 31 30 29 30 32 31 32 34 34 36 39 39 39 39 39 40 42 41 41 45 47 47 47 44 44 49 51 49 53 61 66 68 71 73 74 75 75 74 75 78 80 82 82 81 79 79 77 76 76 74 70 66 64 62 61 59 57 55 53 52 51 49 49 48 46 44 43 43 42 42 41 41 41 39 38 38 37 37 38 37 37
30 31 31 31 31 28 27 29 31 32 34 36 35 37 39 38 38 38 38 39 41 41 40 42 44 46 45 43 43 47 47 44 46 52 59 63 68 71 72 73 73 71 71 71 72 74 76 76 75 74 72 69 67 67 66 64 62 60 58 57 55 54 53 52 50 49 48 47 45 43 42 42 41 40 40 40 40 39 38 37 37 37 38 37 36
30 31 31 31 30 30 30 30 30 33 37 38 37 37 38 37 37 37 37 38 40 42 41 40 41 43 45 44 43 44 44 41 41 45 50 56 62 67 70 72 71 70 68 67 65 65 67 67 68 68 67 65 62 61 59 58 57 57 56 55 54 54 52 51 50 48 47 47 45 42 41 40 38 38 39 39 39 39 39 38 38 36 34 34 34
30 29 30 28 28 30 32 30 30 34 37 36 36 36 35 35 37 36 36 38 40 42 44 43 41 41 43 44 44 44 43 42 42 43 44 47 52 59 66 71 72 70 69 68 66 63 61 61 63 64 64 63 61 59 57 56 54 53 51 51 51 51 50 49 48 46 44 44 43 42 41 40 38 38 38 39 39 39 38 37 37 36 34 33 34
28 26 28 28 27 30 32 31 32 35 35 33 34 34 33 34 36 36 37 40 41 42 44 45 44 42 42 43 44 45 44 44 44 44 43 45 47 51 59 67 71 72 72 72 69 65 61 60 61 61 61 61 59 57 57 57 55 53 51 51 52 51 50 49 49 47 45 43 42 40 39 38 36 37 37 36 35 36 37 37 37 37 37 35 34
28 26 27 28 27 29 32 31 30 32 32 31 31 31 31 32 33 34 37 40 42 44 45 45 46 47 45 43 44 46 46 46 45 44 44 46 47 48 53 62 69 71 71 72 72 68 65 64 64 63 63 62 58 56 55 55 55 54 53 53 54 54 52 50 49 48 46 43 40 39 37 35 33 32 32 31 30 30 34 37 36 35 36 36 36
29 28 28 28 27 28 30 30 29 28 29 29 29 28 29 30 30 30 33 35 38 41 43 44 47 50 49 47 46 47 47 47 47 45 45 47 50 51 52 55 62 67 69 70 72 73 71 69 68 68 67 64 60 56 54 52 53 54 54 54 55 54 53 51 50 49 46 44 41 39 38 36 34 28 24 25 25 25 27 31 33 33 35 37 38
31 30 29 29 29 29 30 29 28 28 27 28 28 29 29 29 29 29 31 32 33 34 37 41 45 48 50 50 49 48 48 48 47 46 45 47 52 54 51 49 54 62 67 67 69 71 73 73 72 70 69 66 63 60 56 52 49 50 52 53 52 52 52 52 51 50 48 46 44 42 41 40 37 30 24 23 25 25 25 26 26 26 30 34 37
31 31 30 29 29 30 31 30 28 27 25 24 26 30 30 29 28 29 31 32 31 30 32 35 38 42 46 48 48 48 49 49 47 47 46 46 50 54 53 49 49 55 63 66 66 66 68 71 71 69 68 67 66 64 61 55 50 48 48 47 46 47 50 50 50 50 49 46 44 44 44 42 39 32 25 22 23 25 27 28 25 23 25 30 35
30 31 31 30 28 29 30 30 28 27 25 24 26 30 30 28 27 28 30 31 31 31 32 34 35 37 40 43 45 49 51 50 48 48 47 46 47 51 53 53 51 51 55 60 63 63 64 66 68 68 69 67 65 63 60 55 51 48 46 42 40 42 45 47 47 49 49 46 45 46 45 43 41 36 28 24 23 22 22 24 26 25 24 25 30
30 31 32 30 28 28 30 29 27 25 24 23 25 28 29 29 29 29 29 31 33 33 33 34 35 37 39 40 43 48 51 50 50 50 49 48 48 48 50 52 52 50 50 53 56 59 61 64 65 66 66 65 63 59 54 51 49 48 45 43 42 43 47 49 49 49 49 47 47 47 45 43 41 36 29 26 27 26 23 23 25 27 28 28 27
29 31 31 30 29 29 29 28 27 26 25 25 25 26 28 29 29 29 30 32 34 35 35 35 36 38 40 42 45 49 51 52 52 52 51 50 49 49 50 51 51 50 51 52 52 53 55 58 59 59 59 59 59 55 50 48 48 47 47 47 49 50 52 51 49 48 47 41 35 36 40 42 41 37 32 29 29 31 32 29 24 24 30 33 31
Wind_Speed
13 14 16 16 16 16 16 15 15 16 17 18 19 20 20 20 20 20 20 19 19 21 21 20 19 18 16 16 15 16 18 18 19 20 18 18 20 21 21 21 20 18 18 20 21 20 20 21 22 24 22 21 25 26 21 19 19 18 15 15 14 13 15 15 9 8 13 16 18 19 23 24 22 22 23 24 25 23 19 19 19 16 16 17 18
15 15 17 17 17 17 16 15 16 17 18 18 18 20 21 21 21 21 21 21 20 21 23 23 21 19 18 16 17 18 18 18 18 19 19 20 21 20 19 20 21 20 18 20 22 21 21 22 23 23 21 21 26 24 21 20 19 19 19 17 16 15 17 16 13 12 12 15 18 19 22 24 22 21 22 25 26 23 18 21 22 16 15 16 17
17 16 16 17 18 18 16 16 16 17 18 19 19 20 20 20 21 20 20 21 22 22 23 23 22 20 18 16 18 18 16 16 18 19 20 20 21 20 18 18 20 21 20 21 23 23 23 24 25 24 21 22 26 23 20 20 20 20 19 19 18 17 17 17 15 16 15 16 19 21 23 24 23 22 22 24 26 22 18 21 21 17 16 16 17
16 17 17 17 18 18 18 19 19 19 20 20 20 21 20 20 20 20 20 21 22 22 23 23 21 21 19 15 15 17 16 16 18 20 21 19 20 19 17 17 18 19 19 20 22 22 23 23 24 24 22 22 24 22 20 20 21 20 18 18 18 15 16 20 19 17 18 18 19 21 24 24 24 23 22 24 27 24 19 19 20 19 19 17 16
17 18 19 18 18 19 19 20 21 22 22 21 21 21 21 21 20 20 20 22 23 23 23 23 21 20 19 16 15 16 16 16 16 18 20 18 18 17 15 15 16 16 17 18 20 21 23 24 24 24 23 20 21 23 23 21 20 18 15 14 10 6 9 15 16 15 18 20 18 19 23 23 22 23 23 23 27 26 21 20 20 21 22 21 18
18 19 20 20 20 21 21 22 22 23 22 22 22 22 22 22 22 21 21 22 24 24 24 24 23 21 19 18 19 16 14 14 15 17 17 18 19 16 14 14 15 17 19 19 19 20 23 25 24 22 22 22 24 25 21 17 15 14 13 13 11 7 8 13 13 13 16 19 18 20 23 22 21 23 24 24 26 26 23 21 21 21 22 23 22
18 18 19 20 20 21 22 22 23 23 23 22 22 22 22 22 22 22 22 24 25 26 25 24 24 23 21 20 20 18 15 15 17 18 16 17 20 18 15 14 15 18 21 21 22 22 23 24 24 23 23 24 25 23 18 15 17 17 15 15 16 14 11 14 16 16 17 18 18 21 23 23 23 25 26 26 27 26 25 23 23 23 22 22 22
18 18 18 20 21 21 22 22 23 23 23 23 23 23 23 22 23 22 22 24 25 25 25 24 23 24 24 22 21 20 18 15 15 15 15 15 17 18 16 15 15 17 19 20 22 22 23 24 24 25 24 23 22 21 21 21 21 19 15 14 18 17 16 19 21 21 19 19 20 22 24 24 23 24 27 28 27 24 25 24 23 24 23 21 19
19 19 19 20 21 21 21 22 23 23 23 23 23 23 23 22 23 23 23 24 24 25 27 26 25 24 24 23 23 23 19 15 14 14 13 12 14 17 18 16 16 16 16 18 20 21 22 23 24 25 24 21 21 23 26 26 23 21 19 16 17 20 21 22 24 24 21 21 21 21 24 24 22 21 22 25 26 23 23 24 22 23 25 23 19
19 19 19 20 21 21 21 22 23 23 23 23 23 24 24 23 24 24 24 25 25 26 29 30 28 27 25 23 23 23 22 20 19 17 14 12 11 14 17 16 16 16 16 18 19 20 20 19 21 23 22 21 23 26 27 26 22 21 21 19 19 22 23 21 23 23 20 20 21 20 20 21 21 21 19 21 25 24 23 24 21 21 24 23 19
20 19 19 20 21 21 21 22 23 23 23 23 23 23 23 24 24 24 24 26 25 26 29 31 31 29 28 26 24 22 24 25 23 20 17 16 12 9 16 19 17 16 17 19 19 19 19 17 18 20 21 22 25 26 26 24 22 19 20 20 21 24 25 22 21 21 17 17 21 20 19 19 21 23 20 20 25 24 24 27 24 22 24 21 17
19 19 20 20 20 20 20 21 22 23 23 24 23 23 24 24 24 24 24 25 25 25 27 28 30 30 30 30 27 23 25 27 26 23 21 19 16 12 13 18 17 15 17 19 19 17 16 17 19 20 21 23 23 22 21 21 23 21 19 19 20 23 26 23 20 20 16 15 17 16 16 17 22 25 20 19 23 21 20 27 27 23 23 21 17
19 20 20 19 20 20 20 21 21 22 23 24 24 24 24 25 24 24 24 25 25 25 26 27 29 30 31 32 30 25 26 30 29 26 23 21 19 18 15 13 14 15 16 18 18 15 14 18 20 19 20 21 20 19 20 20 21 21 19 18 18 21 23 20 17 18 19 17 16 14 13 13 18 24 20 16 19 18 16 23 26 21 18 18 19
19 19 19 20 20 20 20 21 21 22 23 23 24 25 25 25 25 24 24 25 25 26 27 28 29 30 29 31 32 29 29 33 33 28 24 22 21 20 19 15 13 14 15 15 15 13 14 17 18 17 17 18 18 19 20 21 23 21 19 18 16 16 18 17 16 17 19 18 14 13 15 13 12 17 18 16 18 16 14 21 23 17 13 17 20
19 19 19 20 20 21 21 21 21 22 22 23 23 24 25 25 26 26 25 25 25 25 26 27 29 31 30 29 32 33 33 36 35 30 25 23 21 19 19 17 14 11 11 11 10 10 11 13 16 18 16 15 17 17 18 21 22 21 19 18 15 14 14 14 14 16 17 15 14 14 17 17 15 14 14 16 18 14 12 18 20 16 16 19 18
18 18 19 20 21 21 21 21 21 22 22 23 23 24 25 25 25 25 25 26 26 26 26 26 28 31 30 29 30 33 36 39 38 32 27 24 23 19 16 14 10 7 5 6 8 8 10 11 14 16 13 13 17 18 18 19 16 16 17 17 15 13 12 12 12 13 14 15 18 19 17 16 17 18 17 19 18 14 14 17 18 18 19 19 16
17 18 20 20 21 22 22 22 22 22 22 22 22 22 23 24 24 24 23 25 26 26 26 26 27 29 30 31 32 33 37 41 41 35 30 26 23 19 15 12 9 6 3 0 1 3 7 10 12 11 10 11 14 16 20 19 13 14 18 18 15 12 11 11 11 12 14 15 18 19 17 16 17 19 20 21 19 16 17 19 19 20 21 17 13
17 18 19 20 20 21 21 22 23 23 24 25 24 23 23 23 23 23 23 23 24 24 24 25 26 28 29 31 33 34 36 41 43 39 33 29 25 20 15 9 2 4 7 8 6 4 3 6 11 12 12 12 13 14 18 17 14 17 19 19 18 17 16 17 18 18 17 18 19 20 21 21 20 20 19 20 20 20 21 21 18 17 18 16 15
16 17 17 18 19 20 21 21 22 23 23 25 26 25 23 23 23 23 23 22 22 23 23 23 24 26 27 30 33 35 36 39 43 42 38 32 27 22 18 13 10 13 14 13 10 7 7 8 12 14 14 15 14 14 15 15 15 17 18 18 20 20 21 22 23 23 22 21 22 24 24 24 24 24 22 21 20 21 21 20 16 11 12 16 19
16 16 16 17 19 21 22 22 22 22 22 24 26 26 24 24 24 23 22 22 22 23 23 22 23 25 26 29 32 35 37 40 42 42 41 36 29 24 21 18 15 13 14 14 12 11 11 11 11 10 11 12 12 11 12 14 16 17 18 19 21 22 21 21 21 23 24 22 21 22 22 22 22 23 22 20 21 21 22 22 20 16 16 19 21
17 17 17 18 20 23 24 23 22 24 24 26 28 28 26 25 25 24 23 23 23 23 23 23 23 24 26 28 31 34 38 41 41 41 41 39 34 27 22 19 15 13 14 15 14 14 14 14 12 8 7 8 10 11 13 15 18 18 17 19 21 21 21 21 22 23 24 23 22 22 22 22 22 23 22 21 19 18 19 19 19 19 21 21 21
18 18 18 19 20 22 24 23 23 23 24 26 28 28 27 26 26 25 24 24 24 24 24 23 23 23 25 27 30 34 38 40 41 40 39 39 37 33 28 21 16 14 16 17 16 16 16 16 14 12 11 12 13 13 14 16 19 19 18 19 21 21 21 23 24 23 23 24 24 24 23 23 23 24 25 25 22 19 19 20 19 19 21 21 21
16 17 18 18 19 19 21 23 23 23 23 24 26 27 27 27 27 26 25 24 24 24 24 24 23 23 24 25 29 33 37 39 40 40 39 37 36 36 33 29 23 21 21 22 19 18 19 18 18 17 17 18 20 20 19 20 22 22 22 23 23 23 23 23 23 23 24 25 26 26 25 23 23 23 24 24 22 19 19 21 22 22 23 22 20
15 16 16 17 18 18 18 20 22 22 22 22 22 25 26 25 25 26 25 24 24 23 23 23 22 23 23 24 27 31 35 37 37 39 39 38 35 35 33 32 30 28 27 25 22 21 21 20 20 21 22 23 25 26 26 26 27 26 25 25 24 24 24 24 25 25 27 27 26 26 24 22 22 23 23 21 20 18 18 20 21 21 22 22 21
14 14 15 15 16 17 16 17 20 21 21 21 21 21 23 24 23 24 24 24 23 23 22 21 20 21 22 22 23 27 33 36 36 36 37 37 36 34 33 31 30 29 28 26 24 22 22 21 20 22 25 27 27 28 27 26 26 25 24 24 25 25 27 28 28 28 27 27 27 26 24 22 23 22 20 18 18 18 18 18 18 16 16 17 18
14 14 14 14 15 15 14 14 16 18 19 20 20 19 20 21 22 22 23 23 23 23 23 22 19 19 20 20 21 24 28 32 34 34 34 35 35 34 33 31 29 28 27 26 24 24 23 23 23 25 27 29 31 31 29 26 24 24 24 24 25 27 28 28 29 28 28 28 27 27 25 23 22 21 20 19 20 21 21 21 20 17 15 15 16
12 13 13 13 14 15 13 12 13 15 17 18 18 17 17 19 21 22 23 23 23 23 23 22 20 18 19 19 20 21 25 28 30 31 32 33 33 32 32 31 30 29 28 27 26 26 26 26 27 28 28 30 32 32 31 29 27 26 26 25 25 25 26 27 29 29 29 28 27 25 23 21 20 20 20 20 19 19 19 19 19 18 17 16 17
12 13 13 12 12 13 13 11 10 11 13 17 18 17 15 15 19 22 24 25 24 23 23 23 21 18 18 19 20 20 22 26 28 28 27 28 29 30 30 29 28 28 28 27 27 27 28 30 31 31 32 32 33 34 33 31 28 28 27 26 26 26 26 28 29 29 27 26 25 23 22 21 20 18 18 18 17 14 12 12 12 13 13 13 15
13 14 13 12 12 12 13 13 11 10 10 11 14 16 15 13 14 18 21 24 26 25 24 25 24 20 18 19 21 21 21 22 24 24 23 23 24 26 27 27 26 24 22 20 21 24 27 30 32 33 33 33 33 34 33 31 28 28 27 26 26 26 25 26 26 25 23 22 22 21 20 19 18 17 15 15 14 13 12 11 9 9 9 9 12
13 13 13 14 14 13 12 13 14 13 10 8 8 10 12 13 13 14 16 19 23 25 25 26 27 26 22 21 22 23 21 19 19 20 21 21 22 23 24 24 24 23 21 19 21 25 28 29 30 30 30 30 31 31 30 28 26 25 25 24 24 23 22 21 20 19 19 18 18 18 17 16 15 14 13 12 11 11 12 11 9 8 6 7 13
14 13 14 14 14 15 16 16 15 14 12 11 9 7 6 8 10 11 12 14 16 20 23 24 26 28 27 24 23 25 25 22 20 19 19 20 21 22 22 22 21 20 21 23 26 27 27 26 26 25 25 25 25 24 23 23 21 21 20 20 20 18 18 17 16 15 15 15 14 14 13 12 12 11 10 9 9 9 9 8 7 6 4 4 13
13 13 13 13 14 17 19 18 15 14 14 14 14 12 10 9 8 9 11 13 13 14 18 21 23 25 27 26 25 25 26 25 23 21 20 19 20 20 20 21 20 18 18 22 24 24 23 23 22 22 21 21 20 19 19 19 18 18 18 18 17 16 15 14 13 12 12 12 11 11 11 11 10 9 8 8 7 7 6 6 5 3 3 7 14
13 12 10 11 14 16 17 16 15 16 16 16 15 15 15 14 12 11 12 14 12 10 12 17 21 22 23 24 25 25 24 24 23 23 21 19 19 19 18 18 19 19 20 22 22 21 20 20 19 19 19 18 17 16 16 16 16 16 16 16 16 15 14 13 12 11 11 10 10 10 10 10 10 8 7 7 6 6 7 7 8 8 10 13 15
12 12 10 10 12 13 15 15 15 15 15 15 16 15 15 15 15 14 14 15 14 11 12 16 21 23 21 20 22 24 24 24 23 23 22 19 18 19 19 19 19 20 21 21 20 18 17 17 17 16 17 16 15 15 15 14 14 15 15 15 14 13 13 13 12 12 11 11 10 10 10 9 9 9 8 8 7 7 8 8 8 9 10 11 11
10 11 12 11 11 13 14 14 14 14 13 15 17 16 14 14 14 14 16 17 16 15 15 17 21 23 22 21 19 20 23 24 23 23 23 21 17 17 20 21 21 20 20 19 18 17 16 15 15 15 15 14 14 14 13 13 13 14 14 14 13 13 13 13 12 12 12 11 11 10 8 7 8 8 8 9 9 10 11 12 12 12 12 13 12
10 10 11 12 12 11 11 12 13 13 12 14 16 15 14 14 14 14 15 16 16 15 15 16 19 21 23 22 20 18 20 24 24 23 24 24 20 18 19 19 18 18 17 16 16 15 15 14 14 13 13 13 13 13 12 12 12 12 12 12 12 11 12 12 11 11 11 11 10 10 10 9 9 9 10 12 12 12 11 11 12 12 13 13 12
10 9 8 11 13 10 9 12 13 12 12 13 14 14 14 14 15 14 15 15 16 15 14 15 17 20 21 21 21 17 16 20 23 23 23 24 23 21 20 19 17 17 17 16 15 15 14 14 13 13 13 13 12 12 12 11 11 11 10 11 11 11 11 11 11 11 11 11 11 11 10 10 9 8 8 9 9 9 8 7 8 9 10 10 9
12 11 9 10 12 11 10 12 11 11 12 12 13 13 14 14 14 14 15 15 16 16 14 14 16 18 18 19 20 18 15 16 21 22 23 23 23 22 21 20 19 17 17 17 16 15 14 14 13 12 12 12 12 11 11 11 10 10 10 10 11 12 11 11 10 10 10 10 10 9 9 10 10 9 9 9 9 9 8 7 6 8 7 8 8
10 10 9 7 8 10 10 9 9 9 10 11 11 12 13 13 13 13 14 14 15 15 13 12 14 15 15 16 18 18 15 15 18 20 20 21 21 20 19 19 19 18 17 16 15 15 15 14 13 12 11 11 11 11 12 12 12 11 11 10 10 10 10 9 9 9 8 8 8 8 9 10 10 10 10 10 10 9 8 7 7 8 7 6 6
5 7 7 5 6 9 8 7 8 8 8 10 12 12 12 11 12 12 12 12 12 14 13 11 12 12 14 15 17 17 16 15 16 16 16 17 18 18 17 17 16 16 16 15 14 14 14 13 13 13 12 11 10 9 9 10 10 10 9 9 10 10 10 10 10 10 10 9 10 10 10 10 10 9 9 9 9 7 7 7 8 9 8 6 4
6 9 9 5 4 7 9 8 9 10 11 11 12 12 11 11 10 10 10 10 11 13 13 11 9 10 12 14 15 15 16 16 14 13 14 15 15 15 15 15 15 15 15 14 13 13 12 12 13 13 13 12 10 8 7 7 7 7 9 10 11 11 11 11 11 11 11 11 12 12 11 10 10 10 9 7 5 4 4 5 6 7 7 5 4
8 9 9 7 6 9 11 10 10 12 14 11 8 7 8 10 10 8 8 9 11 13 13 12 9 8 11 14 15 14 14 15 15 14 13 12 11 12 13 13 13 14 14 14 13 12 12 11 11 12 13 13 13 12 12 10 8 8 9 10 10 8 8 8 8 9 9 9 10 11 10 8 6 6 5 5 3 3 4 5 5 6 4 3 4
7 7 6 7 7 8 10 10 10 10 11 9 8 7 8 9 9 10 10 11 12 12 12 13 12 9 9 12 14 13 13 13 15 15 14 13 12 11 10 10 11 12 13 13 13 13 12 11 10 11 12 12 12 13 16 15 12 9 8 9 9 9 9 9 10 9 8 7 7 7 7 7 5 3 3 6 7 6 5 4 4 4 4 4 4
6 6 5 7 7 7 8 9 9 8 8 9 11 11 10 10 11 11 11 13 13 12 10 11 13 13 11 10 11 12 12 12 13 13 12 13 13 12 10 9 9 9 10 11 11 11 11 10 10 11 12 11 11 11 12 14 14 11 9 10 11 12 13 13 13 11 9 9 8 6 5 7 7 6 4 5 6 5 2 1 2 4 6 6 5
6 6 5 6 7 7 8 9 9 9 9 10 12 12 12 11 11 10 9 10 11 10 9 9 10 12 12 11 10 10 11 11 11 11 10 10 11 12 11 9 8 8 8 8 9 11 11 10 10 10 10 10 10 10 10 10 12 11 10 10 10 10 10 11 10 7 7 9 11 11 9 10 11 9 5 5 6 6 5 4 3 3 5 5 5
4 5 5 5 6 5 6 7 7 8 9 9 9 11 12 12 11 11 10 9 7 7 7 9 9 10 10 9 9 10 10 10 10 11 10 8 8 10 11 9 6 6 7 7 7 9 10 9 8 8 8 8 9 10 10 9 8 8 7 8 8 7 6 6 4 3 3 6 10 10 9 10 11 9 5 4 6 7 5 5 4 2 3 4 4
3 4 4 5 5 5 5 5 4 5 7 7 7 8 10 12 11 12 12 12 10 9 8 9 9 10 9 9 8 9 9 9 9 10 9 7 7 8 11 10 7 5 6 7 7 5 6 7 7 8 8 7 7 8 9 9 7 6 5 5 5 4 3 2 2 3 3 4 6 7 7 8 8 8 6 4 5 6 5 4 2 1 1 1 2
3 4 3 4 5 4 4 6 5 3 6 8 8 8 10 12 12 11 12 13 14 13 11 11 10 10 9 9 9 8 8 8 9 9 9 8 7 6 9 12 9 5 4 6 7 6 5 6 6 6 6 6 6 6 7 7 6 6 6 6 6 4 3 3 3 4 4 4 3 5 6 6 6 6 6 5 4 4 4 5 4 2 1 2 3
1 3 3 3 5 4 3 6 9 4 7 7 9 8 10 10 11 11 12 12 14 13 12 13 14 13 11 11 11 9 8 8 9 8 8 8 7 6 7 10 10 7 5 5 6 6 7 7 5 3 4 6 7 6 5 5 6 7 8 9 7 5 4 4 5 5 5 4 3 2 3 4 5 5 4 4 5 5 4 3 4 3 1 2 3
4 2 3 1 4 6 3 3 7 7 7 7 8 6 7 8 10 11 11 11 13 13 11 12 13 14 13 13 11 10 9 8 8 8 8 8 8 7 6 7 8 7 5 5 5 5 5 6 6 4 4 5 6 6 4 4 6 8 10 9 7 6 5 5 6 6 6 5 5 4 2 2 4 4 3 2 4 4 3 1 1 1 1 1 3
4 1 3 0 3 7 5 3 5 7 6 7 8 6 6 8 7 9 10 10 11 13 13 12 11 11 12 13 12 12 11 10 9 9 8 8 8 7 5 6 7 5 4 5 7 6 4 4 5 5 4 4 4 3 4 5 7 9 9 8 7 7 7 6 6 7 8 8 7 5 3 1 2 4 3 3 3 2 1 1 3 4 4 2 2
Wind_Direction
16 26 20 13 10 3 358 354 352 350 348 349 349 346 344 342 339 340 340 336 331 330 326 319 314 311 303 293 282 274 273 269 257 250 246 242 241 237 231 226 223 222 221 219 218 219 222 225 225 222 217 221 233 228 214 212 214 210 210 210 208 207 200 192 173 166 184 186 183 178 176 178 179 178 178 178 177 173 183 196 188 183 190 191 189
12 25 22 15 12 8 3 360 357 354 353 354 353 351 347 344 341 340 341 338 334 332 330 329 327 322 317 307 288 276 276 274 261 250 244 242 244 241 233 227 224 219 215 215 217 220 224 227 227 222 215 223 234 228 213 211 211 210 211 210 208 206 203 196 176 172 185 187 183 178 176 180 180 179 177 176 175 178 187 188 182 187 200 197 193
8 18 23 19 15 9 5 3 359 359 1 358 355 355 352 348 346 344 342 338 333 331 331 332 330 321 314 309 299 292 286 279 266 249 239 239 242 241 234 230 227 218 211 209 208 211 218 223 224 218 213 227 235 226 215 214 210 211 213 210 210 208 202 197 184 178 181 181 183 180 179 184 184 180 180 179 176 177 183 182 181 192 203 201 197
10 14 18 19 16 12 9 4 0 5 9 2 357 357 354 351 350 347 345 341 335 331 328 328 328 323 318 309 296 293 288 279 265 249 241 239 241 244 242 235 228 218 213 211 206 203 208 216 219 213 208 222 233 226 218 216 211 211 212 208 211 209 200 201 196 182 175 176 182 182 179 182 184 179 176 178 179 178 182 188 191 194 197 198 197
16 16 14 14 15 13 12 8 6 9 10 4 359 359 356 355 354 352 351 348 343 340 336 333 330 325 321 312 297 291 285 278 266 252 250 251 247 245 242 237 231 222 218 218 214 207 208 215 219 214 209 218 234 233 223 215 210 211 210 206 204 179 172 195 202 190 176 174 178 181 178 180 184 181 174 174 180 183 185 187 188 191 194 196 199
18 18 14 12 11 11 12 11 9 11 9 6 4 1 359 358 357 356 355 353 353 352 350 347 343 338 329 315 308 303 292 284 278 265 256 252 247 237 227 230 236 234 231 229 226 219 215 218 219 217 215 217 229 237 232 219 213 211 208 205 201 188 173 184 202 212 193 178 175 174 175 179 181 179 179 176 176 185 191 185 183 193 195 191 194
20 18 15 14 11 9 11 11 10 11 10 9 7 3 2 1 358 358 359 358 359 359 356 355 353 352 349 337 327 318 305 294 287 278 264 251 246 239 225 220 229 237 237 236 234 229 225 224 219 215 216 217 224 237 243 232 218 211 212 213 210 208 193 182 198 215 204 188 183 179 179 184 183 181 185 181 174 182 193 186 184 193 192 186 189
19 17 16 17 13 10 12 12 11 11 11 10 9 6 5 3 1 1 1 2 3 1 359 359 358 358 359 356 352 344 328 314 305 297 282 261 250 242 230 220 223 232 234 235 236 233 230 229 225 219 217 218 223 232 238 230 215 204 205 213 211 200 185 186 201 214 210 201 197 186 181 189 193 189 188 181 172 180 193 190 186 188 183 182 188
21 17 18 18 14 11 12 14 12 11 11 12 11 9 8 6 5 4 5 5 4 1 2 5 4 3 2 1 4 5 358 345 338 330 310 284 263 249 240 229 222 228 236 236 237 237 235 234 232 226 220 220 221 222 226 226 218 210 205 205 206 196 184 187 202 214 215 204 193 180 176 187 195 192 186 178 172 180 192 189 184 182 176 176 184
25 20 18 16 13 12 12 13 13 13 13 13 12 12 11 9 8 8 8 7 6 4 5 8 9 8 6 4 6 7 2 353 344 338 330 316 287 253 245 239 225 225 235 235 232 235 237 236 235 231 225 222 220 219 222 224 221 220 216 209 205 199 192 190 200 216 217 195 182 175 173 182 189 189 187 179 176 183 189 183 180 180 174 171 179
27 21 19 15 13 13 12 13 13 14 15 14 14 14 13 13 12 10 9 8 7 7 7 8 9 9 7 8 8 2 355 351 346 338 333 331 321 268 244 242 232 223 231 236 232 229 231 233 234 235 230 226 223 221 223 223 219 221 222 217 211 204 199 196 202 215 213 186 181 184 180 180 184 188 192 183 180 186 185 180 182 182 174 172 181
28 24 19 14 14 15 15 15 15 16 15 14 15 14 13 14 13 11 10 8 8 8 8 8 7 8 7 7 8 4 355 352 349 340 334 330 328 311 266 248 239 231 232 239 238 230 228 232 234 235 231 228 227 225 223 223 222 222 220 214 210 206 202 202 205 210 207 187 181 185 183 179 178 185 192 185 180 186 183 179 184 188 182 178 176
27 26 20 15 17 17 17 17 16 18 17 15 15 14 14 15 12 11 10 9 11 11 10 10 8 8 8 7 7 6 360 357 353 343 335 327 320 318 307 278 253 244 238 239 240 235 228 224 222 226 228 229 232 230 225 222 218 215 210 204 205 205 204 206 207 210 211 199 182 175 174 172 171 179 188 185 180 188 189 180 184 192 186 173 167
28 28 22 20 22 20 21 21 19 19 18 16 17 16 16 16 13 12 11 10 12 13 11 12 12 11 10 9 9 9 5 1 358 349 342 333 321 316 317 310 280 257 250 249 251 251 245 232 222 219 221 226 232 229 224 220 209 200 196 192 191 196 202 207 206 207 211 206 194 184 180 184 186 182 184 185 182 191 193 183 187 193 169 150 157
31 30 25 25 25 22 23 22 19 20 18 16 18 18 18 19 16 14 13 12 13 13 12 12 12 12 11 10 10 12 9 6 2 357 351 343 332 323 316 310 299 279 268 271 276 271 257 241 226 215 207 212 222 221 222 221 206 188 183 187 188 189 193 199 200 203 210 210 211 208 196 201 215 207 197 191 184 193 204 188 186 181 149 134 142
32 30 27 26 26 24 23 22 19 20 18 17 18 17 17 19 18 16 16 15 14 15 15 13 11 11 11 9 9 10 10 10 7 3 358 350 341 334 326 319 308 289 281 297 301 282 255 235 223 216 209 213 217 210 211 215 196 168 170 183 192 191 186 188 188 192 199 198 203 208 200 203 210 205 205 204 194 203 209 184 173 165 145 131 129
32 30 26 25 27 25 24 22 20 17 16 17 18 17 17 16 14 15 17 18 16 15 15 15 13 12 11 10 10 9 10 12 12 8 5 360 352 342 333 323 298 267 250 333 282 249 236 225 214 204 198 211 216 207 207 208 185 161 165 166 167 169 168 170 170 173 182 184 189 194 190 189 190 185 192 200 196 196 187 163 155 158 146 131 127
34 31 26 24 27 27 25 25 23 20 18 17 14 14 17 16 14 15 17 18 17 15 14 15 15 14 12 10 10 10 10 13 15 14 11 8 6 359 349 339 295 161 121 115 128 143 169 191 193 188 186 197 205 202 201 196 173 165 165 154 147 145 141 141 141 144 153 156 155 157 156 160 165 160 163 172 174 178 173 154 147 155 149 141 135
38 34 30 28 28 28 28 29 29 26 25 24 19 15 14 14 15 18 20 18 17 15 13 14 14 14 12 10 11 11 10 13 18 19 16 14 16 18 21 35 72 98 101 102 107 107 110 132 157 170 173 179 184 184 188 187 175 171 167 153 144 140 134 132 131 130 132 130 128 130 131 135 142 142 138 135 135 142 148 146 148 158 160 159 151
41 38 34 32 32 31 29 30 30 27 27 29 25 18 15 14 14 18 21 19 19 18 16 14 14 13 12 12 13 14 13 15 20 23 22 20 21 28 32 33 42 65 79 80 80 83 91 104 123 143 156 167 175 171 167 172 171 168 166 158 149 141 135 131 129 127 122 112 106 110 112 114 119 124 123 115 107 105 112 122 130 127 127 141 144
38 37 35 34 36 34 30 28 27 25 29 33 27 19 17 16 15 17 20 19 18 18 18 17 16 15 14 14 15 17 17 17 21 27 28 26 25 29 34 30 29 46 67 74 73 72 79 90 99 112 135 156 170 167 156 154 155 156 162 161 152 145 142 137 132 126 118 108 102 99 97 96 95 98 101 99 97 97 97 103 111 112 113 124 131
36 36 35 36 42 42 36 33 31 29 33 37 32 25 23 21 18 18 20 19 17 16 15 17 18 17 15 14 15 18 21 22 23 28 31 32 32 32 33 37 42 49 60 68 70 69 75 87 95 107 126 136 141 149 151 149 149 149 152 153 148 144 141 133 126 120 114 109 105 97 91 89 87 86 88 86 87 92 92 91 97 104 109 117 124
37 38 37 36 40 42 39 37 35 34 37 39 36 30 28 27 25 23 22 21 19 16 13 13 15 15 15 14 14 17 21 24 25 28 31 35 38 38 37 41 49 57 61 64 65 69 77 86 92 103 119 123 120 122 127 132 135 136 138 139 138 137 135 128 121 116 110 106 102 96 92 90 87 83 83 83 83 86 89 91 95 99 102 106 108
39 41 40 39 38 38 39 37 33 31 34 39 38 33 29 29 28 26 25 24 22 19 15 12 13 14 13 12 12 14 19 24 25 27 31 34 38 42 42 42 46 52 57 60 62 67 74 81 87 96 107 112 113 115 118 123 126 128 131 134 135 136 135 128 121 115 109 103 99 97 97 98 94 90 89 92 92 92 94 94 94 96 100 102 103
45 42 42 43 38 36 41 42 35 30 31 36 40 36 31 29 29 27 26 26 24 21 17 14 13 14 12 11 10 11 16 23 25 26 28 31 35 40 43 45 46 48 49 51 55 63 72 78 83 91 99 106 109 108 107 113 121 125 127 130 131 131 129 125 119 111 105 101 99 98 99 100 100 100 101 101 100 97 94 92 92 98 105 107 107
50 43 42 45 40 38 47 51 43 38 37 36 39 39 34 32 32 29 26 25 23 21 19 16 14 14 12 10 9 8 12 19 24 26 27 27 30 33 38 43 48 50 50 49 51 57 66 74 77 78 85 94 99 97 95 98 108 113 116 118 118 119 119 118 114 107 102 101 101 101 102 103 102 103 101 100 101 100 99 100 102 109 116 118 117
57 48 42 41 38 39 52 64 58 49 45 42 41 41 37 36 39 39 35 31 26 22 21 19 15 13 12 8 5 7 11 15 20 25 27 27 27 29 31 35 41 48 53 55 55 56 59 66 72 73 75 82 90 91 88 86 88 92 97 99 101 104 107 109 108 104 102 101 101 102 104 105 104 103 101 99 100 102 105 111 114 114 114 112 110
63 56 47 41 39 39 45 57 69 69 59 50 46 44 42 42 45 47 46 42 37 31 27 25 20 16 15 10 5 5 10 15 19 22 25 26 28 29 30 30 32 39 46 52 57 58 57 59 63 64 63 66 74 79 79 74 72 77 84 88 91 95 97 98 100 100 100 100 100 99 99 99 99 101 101 100 99 101 107 115 120 122 122 117 111
68 62 51 40 41 44 40 38 49 70 73 58 46 43 42 44 49 51 50 48 46 42 40 37 34 29 24 19 16 12 9 12 18 24 29 31 30 31 34 34 32 32 35 40 49 53 52 51 51 51 50 50 53 61 65 63 61 66 73 81 87 91 91 90 90 90 91 92 93 93 94 93 93 95 99 100 100 104 111 116 126 141 148 147 141
58 59 55 47 41 41 43 40 41 46 53 56 51 43 37 35 39 43 45 46 45 44 46 45 40 36 34 32 29 26 20 16 19 26 33 37 36 35 37 38 38 38 39 45 52 53 52 50 48 47 46 44 44 48 53 54 54 56 60 67 74 80 83 82 81 81 82 83 86 89 93 94 94 96 100 105 109 115 120 127 142 156 161 156 150
38 40 46 52 45 37 40 45 42 38 38 40 44 45 35 27 27 27 29 34 37 39 43 45 41 37 36 36 36 34 32 29 29 30 32 35 38 40 41 41 40 42 47 53 56 54 51 51 50 48 48 49 48 48 50 52 53 56 59 62 66 72 76 78 78 81 82 84 89 94 97 100 102 104 106 114 127 136 137 143 159 185 223 169 138
38 33 31 39 45 44 43 41 34 32 37 39 38 36 30 21 18 16 15 17 22 27 35 41 40 35 33 33 34 36 35 32 30 31 32 35 39 43 46 46 43 41 46 52 54 54 51 50 49 48 48 51 52 53 56 57 58 61 63 64 67 70 74 77 81 86 91 96 100 105 109 113 116 119 124 133 141 134 117 109 114 143 182 143 130
55 45 35 34 40 45 45 39 32 30 34 36 37 36 31 22 17 20 17 13 13 17 25 32 34 30 28 29 32 35 37 35 32 30 30 34 42 47 49 51 49 45 47 52 53 52 51 50 48 47 46 48 51 54 58 60 63 66 67 67 68 70 73 79 84 88 93 99 103 108 113 116 116 116 117 124 126 108 94 92 92 97 112 121 121
66 47 39 39 44 47 44 38 35 32 32 37 40 39 35 25 19 24 26 17 14 20 23 23 24 23 21 23 29 35 37 35 34 34 31 31 39 46 48 51 52 50 52 55 55 52 49 49 50 49 48 48 50 53 57 62 67 70 71 71 73 74 75 78 80 82 87 95 100 102 104 107 107 102 99 103 102 87 79 87 92 92 95 99 97
52 25 14 18 37 52 51 42 36 29 29 40 44 38 34 29 23 27 33 24 17 24 29 21 17 20 22 20 22 32 37 34 31 34 34 32 33 37 39 43 45 46 48 50 51 50 50 50 50 51 51 52 54 56 60 64 66 69 71 72 73 74 74 74 77 82 89 95 93 88 88 97 103 101 99 98 93 81 74 75 77 78 77 77 77
41 24 9 1 8 30 49 50 40 27 29 46 49 37 31 30 26 27 34 30 20 23 33 28 18 19 23 21 17 23 33 34 32 32 33 33 33 32 33 36 38 39 40 40 42 46 48 48 50 52 54 56 58 58 60 64 66 67 67 69 71 73 73 73 78 84 86 86 81 75 77 88 94 93 89 84 80 79 78 70 67 74 79 75 73
56 46 28 3 352 0 40 55 43 24 23 41 49 40 29 27 27 28 34 34 23 19 32 37 24 17 20 21 18 18 26 32 33 34 32 31 32 33 32 31 32 34 35 35 38 43 44 45 47 51 54 58 61 61 60 63 65 64 64 67 70 72 74 76 79 81 80 78 79 78 79 83 85 85 86 83 77 77 75 65 68 83 83 72 69
78 67 49 20 359 0 32 51 40 21 16 26 40 45 34 23 23 30 34 31 22 18 31 44 32 18 17 19 17 17 25 33 34 35 33 30 28 29 30 30 30 32 35 37 39 43 45 46 49 51 56 60 60 57 59 64 64 65 71 77 77 74 74 74 77 82 82 77 77 80 79 77 79 81 86 90 90 87 81 79 94 103 89 66 67
101 77 59 38 10 10 30 46 37 23 21 20 28 43 38 22 19 27 31 31 25 18 24 46 44 25 19 22 21 19 26 36 38 38 38 36 31 26 28 31 30 29 33 36 38 41 43 46 49 51 53 54 53 55 63 71 73 73 75 77 73 68 66 66 70 78 77 66 63 72 75 74 75 76 78 82 84 84 81 75 82 95 92 74 73
107 67 52 47 26 20 30 39 28 29 38 27 18 27 31 21 19 24 23 27 30 20 17 39 52 37 27 32 30 22 22 35 43 42 41 42 39 31 28 29 29 28 31 34 37 38 40 45 50 52 51 50 53 58 61 64 68 73 76 76 71 64 63 65 67 69 69 64 61 63 70 77 80 81 85 87 85 84 85 78 77 89 93 86 94
25 36 39 45 33 21 23 24 23 39 52 39 19 17 14 4 10 24 22 22 31 25 18 29 47 42 35 36 35 29 26 30 37 45 46 44 41 36 32 31 29 28 30 32 33 37 41 44 46 46 43 40 44 50 48 44 50 60 66 70 69 64 60 62 61 56 57 62 63 63 65 71 76 82 91 99 104 115 120 115 112 109 98 84 93
14 26 30 27 14 15 21 21 18 32 41 32 14 14 8 353 359 18 26 32 40 31 17 15 25 36 39 35 33 35 33 27 28 39 46 44 43 44 41 34 29 28 29 30 30 33 36 37 37 37 35 33 34 40 45 47 51 57 60 65 70 69 64 65 62 50 43 52 66 68 62 56 65 84 84 66 62 100 117 114 115 118 108 89 87
25 21 20 25 19 16 25 25 14 18 26 13 355 1 6 1 6 14 16 27 40 33 15 7 9 16 31 36 32 28 27 29 33 35 33 35 44 49 45 37 33 30 27 26 29 33 34 32 30 31 33 31 32 40 47 49 50 56 64 66 67 66 63 62 63 58 48 48 62 68 54 42 53 83 62 40 49 71 86 81 72 78 93 104 96
28 17 15 32 30 23 31 30 12 6 21 19 7 6 10 12 17 21 18 18 21 19 11 5 3 2 12 29 36 27 21 27 36 35 30 36 42 40 37 42 45 36 23 18 25 35 40 39 37 35 33 31 31 37 43 45 44 51 65 70 65 63 60 55 53 55 54 50 51 58 54 41 40 49 60 56 53 57 71 70 21 42 65 83 91
33 24 19 31 30 25 34 32 12 7 27 32 20 13 12 10 11 20 30 25 13 5 3 6 4 1 2 10 24 28 22 23 28 30 34 44 46 38 36 43 48 41 29 20 21 29 35 40 42 37 33 36 38 33 27 29 34 43 59 70 69 66 62 53 42 38 46 49 50 57 62 50 36 34 45 46 30 31 54 83 88 61 49 52 63
43 19 12 25 27 27 35 29 16 17 29 33 29 21 12 3 3 14 23 23 10 1 9 15 12 6 2 3 12 20 20 20 23 24 30 48 57 44 35 34 35 35 35 36 34 28 23 25 32 30 27 38 46 40 33 32 31 33 45 59 65 70 74 67 44 21 28 42 46 49 53 48 38 34 34 28 23 27 44 67 78 68 37 39 59
38 15 18 17 7 17 27 11 8 38 29 9 20 39 21 2 4 17 16 4 356 3 24 31 22 14 13 11 11 16 20 21 23 23 26 44 66 51 33 28 29 27 32 47 56 41 17 17 26 27 26 31 38 39 38 35 29 24 25 28 33 44 56 54 39 24 18 27 39 40 34 26 24 23 19 17 29 37 39 40 35 339 310 36 102
4 0 26 10 346 6 25 344 331 53 50 3 358 39 39 10 2 17 19 3 354 2 19 25 19 20 24 17 9 14 21 21 24 28 27 36 58 62 39 30 28 20 21 41 48 46 44 42 34 24 23 24 27 34 33 19 6 5 3 356 353 351 334 327 342 358 0 5 30 45 35 21 14 13 6 355 359 16 28 36 36 17 258 200 184
83 346 355 359 339 345 18 342 327 2 62 27 359 28 48 23 1 12 23 8 351 357 17 19 11 12 21 19 14 18 22 17 22 30 26 26 42 53 38 29 28 26 26 31 31 36 49 49 36 25 30 24 19 24 21 356 344 348 349 349 352 352 336 333 339 343 346 348 344 355 19 17 8 5 7 6 2 355 350 14 42 46 61 200 204
113 2 308 339 339 327 338 357 333 348 39 33 353 4 55 42 7 9 25 11 348 352 18 27 14 9 13 14 15 23 22 14 17 22 17 18 31 37 33 33 33 26 19 14 8 13 33 35 30 43 52 29 14 13 0 334 335 344 345 349 1 6 0 357 353 345 339 333 317 300 304 351 352 342 336 351 6 8 4 343 282 254 252 245 229
115 297 277 97 3 321 322 357 336 333 10 15 341 343 55 62 19 6 21 14 350 352 13 24 18 14 13 11 14 21 19 11 13 15 7 6 15 18 25 40 36 23 17 19 13 12 26 30 25 37 47 31 12 5 343 328 336 346 349 355 5 5 359 356 354 348 342 333 320 300 266 256 352 354 333 304 313 340 40 354 295 257 232 232 242